星链-11168 (STARLINK-11168)

导读 | 星芒AI

STARLINK-11168 是 SpaceX Starlink 卫星互联网项目中的一颗低轨道卫星,属于星链计划的第 52 批部署任务。该卫星于 2023 年发射,旨在为全球用户提供高速互联网服务。它运行在约 550 公里的轨道高度,采用先进的通信技术,支持宽带接入。Starlink 项目通过大规模部署卫星,致力于改善偏远地区的网络覆盖,提升全球互联网接入的公平性与效率。

基本信息
目录编号:
60183
目录名称:
STARLINK-11168
国际标识:
2024-124A
轨道中心:
EARTH
卫星名称:
星链-11168 (STARLINK-11168)
卫星全名:
星链-11168 (STARLINK-11168)
卫星状态:
在轨 (已飞行483 天)
发射日期:
2024-07-03 UTC
国别 :
美国 (US)
星等 :
--
轨道信息
数据来源 国际轨道数据
星历时间: 2025-10-28T04:46:29+0800
1天前
查看轨道信息
半长轴: 6737.846km
偏心率: 0.0001085
轨道倾角: 53.157°
近地点辐角 69.944°
升交点赤经 95.953°
平近点角 290.169°
近地点: 358.979km
远地点: 360.443km
周期: 91.736分钟
每日圈数: 15.697165
详细信息
卫星平台:
Starlink v2.0 mini
运营商:
太空探索技术公司
运营商所在国:
美国
制造商(研发单位):
太空探索技术公司
制造商所在国:
美国
使用方式:
暂无
卫星简介
星链(Starlink)计划是由太空探索技术公司(SpaceX)提出的一个巨型低轨卫星互联网星座项目,计划在2019年至2024年间在太空搭建由约1.2万颗卫星组成的“星链”网络,其中1584颗将部署在地球上空550千米处的近地轨道,并从2020年开始工作。该卫星仍在工作。
2D轨道图
3D轨道图
轨道高度分析图
轨道倾角分析图
轨道综合分析图
查看轨道综合分析图